Regional Weather Roundup
Issued by NWS

Home | Current Version | Previous Version | Graphics & Text | Print | Product List | Glossary On
Versions: 1 2 3 4 5 6 7 8 9 10 11 12 13 14 15 16 17 18 19 20 21 22 23 24 25 26 27 28 29 30 31 32 33 34 35 36 37 38 39 40 41 42 43 44 45 46 47 48 49 50
000
ASUS45 KSLC 161410
RWRUT

UTAH REGIONAL WEATHER ROUNDUP
NATIONAL WEATHER SERVICE SALT LAKE CITY UT
700 AM MST TUE JAN 16 2018

UTZ001>011-023>025-161500-

NORTHERN UTAH

CITY           SKY/WX    TMP DP  RH WIND       PRES   REMARKS
BRIGHAM CITY   CLEAR     29  22  75 N6        30.34R WCI  23
DUGWAY         PTCLDY    19  18  93 VRB1      30.31
HILL AFB       CLEAR     31  18  58 E24       30.30S WCI  17
LOGAN          CLEAR     22  15  75 CALM      30.35S
OGDEN          CLEAR     32  19  58 CALM      30.31R
SALT LAKE CITY PTCLDY    36  22  56 S10       30.31R WCI  28
TOOELE VALLEY  CLEAR     32  27  80 S15       30.31F WCI  22
WENDOVER       PTCLDY    23  20  88 W3        30.32R
HEBER CITY       N/A     18  12  79 SE3       30.37R
WEST JORDAN    CLEAR     26  24  92 CALM      30.33R

$$

UTZ011>015-024>027-161500-

CENTRAL/NORTHEAST UTAH

CITY           SKY/WX    TMP DP  RH WIND       PRES   REMARKS
PROVO AIRPORT  PTCLDY    27  24  89 SW5       30.33S WCI  22
MOAB/CANYONLAN PTCLDY    24  12  60 W5        30.39R WCI  18
DELTA          PTCLDY    25  25 100 CALM      30.29S
PRICE          PTCLDY    23  16  74 N8        30.37S WCI  14
ROOSEVELT      PTCLDY    14   9  79 W5        30.49S WCI   6
VERNAL         CLEAR     13   7  77 CALM      30.46R

$$

UTZ013>016-019>022-027-161500-

SOUTHERN UTAH

CITY           SKY/WX    TMP DP  RH WIND       PRES   REMARKS
BRYCE CANYON   PTCLDY    17  14  88 CALM      30.33R
CEDAR CITY     MOCLDY    26  24  92 CALM      30.27R
MILFORD        MOCLDY    23  20  88 CALM      30.28R
ST GEORGE      SUNNY     40  35  83 CALM      30.27R
HANKSVILLE     MOCLDY    16  12  86 CALM      30.43R
KANAB          CLEAR     36  25  64 N6        30.34R WCI  31
BLANDING         N/A     21  12  68 NE3       30.41R

$$

REGIONAL REPORTS     COLORADO/ARIZONA

CITY           SKY/WX    TMP DP  RH WIND       PRES   REMARKS
CRAIG, CO      CLEAR     -3  -8  79 CALM      30.45R
GRAND JUNCTION CLEAR     21  13  71 E9        30.42R WCI  11
RIFLE, CO      CLEAR     16  11  80 CALM      30.45R
MONTROSE, CO   CLEAR     16  12  84 S7        30.44R WCI   6
CORTEZ, CO     PTCLDY    15  12  88 E6        30.35R WCI   6
COLORADO CITY    N/A     43  28  56 NE14G21   30.30R
PAGE, AZ       MOCLDY    37  28  70 CALM      30.33R
GRAND CANYON   MOCLDY    37  21  52 E8        30.29S WCI  31
KINGMAN, AZ    PTCLDY    38  31  76 CALM      30.19R
FLAGSTAFF, AZ  PTCLDY    23  19  85 CALM      30.30R

$$

REGIONAL REPORTS    NEVADA/IDAHO/WYOMING

CITY           SKY/WX    TMP DP  RH WIND       PRES   REMARKS
LAS VEGAS, NV  MOCLDY    50  39  66 S3        30.17R
ELY, NY        MOCLDY    24  20  84 S8        30.26S WCI  15
ELKO, NV       CLOUDY    29  26  89 E5        30.23R WCI  24
POCATELLO, ID  CLEAR     22  19  89 CALM      30.32R
BURLEY, ID     CLEAR     30  24  78 NE13G23   30.25S WCI  20
FORT BRIDGER,    N/A      9   7  92 W6        30.40S WCI  -1
EVANSTON, WY   CLEAR     11   8  88 E5        30.36R WCI   3
ROCK SPRINGS,  CLEAR      6   1  80 NE3       30.38F

$$



USA.gov is the U.S. government's official web portal to all federal, state and local government web resources and services.